Flight Track Log - Related Links

Times and Time Zones

All times are in EDT time to prevent confusion due to time zone crossing. See the UAL538 flight status page for this flight to view local times or setup timezone preferences in your user account.

Time Position Orientation Groundspeed Altitude Reporting Facility
EDT Latitude Longitude Course Direction KTS MPH feet Rate Location/Type
Fri 10:02:23 PM 39.8833 -104.5667 79° East 197 227 7,100  Level Denver TRACON
Fri 10:03:23 PM 39.9000 -104.4833 75° East 253 291 9,100 1,558 Climbing Denver TRACON
Fri 10:04:00 PM 39.9241 -104.2719 78° East  Level FlightAware
Fri 10:04:57 PM 39.8936 -104.3031 93° East 348 400 11,100  Level Denver Center
Fri 10:05:00 PM 39.9463 -104.1392 78° East  Level FlightAware
Fri 10:05:59 PM 39.9253 -104.1706 73° East 381 438 13,300  Level Denver Center
Fri 10:06:00 PM 39.9687 -104.0065 75° East  Level FlightAware
Fri 10:07:00 PM 39.9918 -103.8740 79° East  Level FlightAware
Fri 10:07:01 PM 39.9600 -104.0233 73° East 390 449 16,200  Level Denver Center
Fri 10:08:03 PM 39.9908 -103.8881 73° East 380 437 19,600 2,565 Climbing Denver Center
Fri 10:09:05 PM 40.0161 -103.7572 76° East 373 429 21,500 1,790 Climbing Denver Center
Fri 10:10:07 PM 40.0461 -103.6111 75° East 383 441 23,300 1,694 Climbing Denver Center
Fri 10:11:09 PM 40.0736 -103.4686 76° East 397 457 25,000 1,016 Climbing Denver Center
Fri 10:12:11 PM 40.1025 -103.3189 76° East 419 482 25,400 390 Climbing Denver Center
Fri 10:13:12 PM 40.1297 -103.1825 75° East 455 524 25,800 823 Climbing Denver Center
Fri 10:14:15 PM 40.1658 -102.9861 76° East 470 541 27,100 1,152 Climbing Denver Center
Fri 10:15:17 PM 40.1986 -102.8156 76° East 478 550 28,200 1,161 Climbing Denver Center
Fri 10:16:19 PM 40.2347 -102.6267 76° East 481 554 29,500 1,210 Climbing Denver Center
Fri 10:17:21 PM 40.2653 -102.4631 76° East 483 556 30,700 1,220 Climbing Denver Center
Fri 10:18:22 PM 40.3003 -102.2728 76° East 483 556 32,000 1,122 Climbing Denver Center
Fri 10:19:24 PM 40.3289 -102.1128 77° East 475 547 33,000 438 Climbing Denver Center
Fri 10:20:39 PM 40.3678 -101.8958 77° East 479 551 33,000  Level Denver Center
Fri 10:21:40 PM 40.3928 -101.7603 76° East 479 551 33,000  Level Denver Center
Fri 10:22:42 PM 40.4319 -101.5436 77° East 479 551 33,000  Level Denver Center
Fri 10:23:44 PM 40.4594 -101.3836 77° East 472 543 33,000  Level Denver Center
Fri 10:24:46 PM 40.4917 -101.1994 77° East 465 535 33,000  Level Denver Center
Fri 10:25:47 PM 40.5186 -101.0431 77° East 461 531 33,000  Level Denver Center
Fri 10:26:49 PM 40.5503 -100.8614 77° East 461 531 33,000  Level Denver Center
Fri 10:27:51 PM 40.5761 -100.7067 78° East 459 528 33,000  Level Denver Center
Fri 10:28:53 PM 40.6067 -100.5275 77° East 456 525 33,000  Level Denver Center
Fri 10:29:54 PM 40.6322 -100.3725 78° East 457 526 33,000  Level Denver Center
Fri 10:30:56 PM 40.6617 -100.1906 78° East 456 525 33,000  Level Denver Center
Fri 10:31:58 PM 40.6872 -100.0356 78° East 455 524 33,000  Level Denver Center
Fri 10:32:59 PM 40.7164 -99.8547 78° East 453 521 33,000  Level Denver Center
Fri 10:34:01 PM 40.7406 -99.7053 78° East 455 524 33,000  Level Denver Center
Fri 10:35:02 PM 40.7664 -99.5431 78° East 455 524 33,000  Level Denver Center
Fri 10:36:04 PM 40.7914 -99.3789 79° East 455 524 33,000  Level Denver Center
Fri 10:37:06 PM 40.8211 -99.1833 79° East 455 524 33,000  Level Denver Center
Fri 10:37:45 PM 40.8358 -99.0819 79° East 456 525 33,000  Level Minneapolis Center
Fri 10:38:46 PM 40.8589 -98.9186 79° East 455 524 33,000  Level Minneapolis Center
Fri 10:39:47 PM 40.8817 -98.7561 79° East 452 520 33,000  Level Minneapolis Center
Fri 10:40:49 PM 40.9042 -98.5931 80° East 452 520 33,000 -537 Level Minneapolis Center
Fri 10:41:50 PM 40.9269 -98.4317 79° East 448 516 31,900 -984 Descending Minneapolis Center
Fri 10:42:51 PM 40.9511 -98.2575 80° East 433 498 31,000 -1,082 Descending Minneapolis Center
Fri 10:43:52 PM 40.9725 -98.1031 80° East 429 494 29,700 -984 Descending Minneapolis Center
Fri 10:44:53 PM 40.9931 -97.9461 80° East 432 497 29,000 -344 Descending Minneapolis Center
Fri 10:45:54 PM 41.0139 -97.7931 80° East 427 491 29,000  Level Minneapolis Center
Fri 10:46:55 PM 41.0336 -97.6397 80° East 423 487 29,000  Level Minneapolis Center
Fri 10:47:56 PM 41.0542 -97.4892 80° East 418 481 29,000  Level Minneapolis Center
Fri 10:48:58 PM 41.0750 -97.3289 80° East 413 475 29,000  Level Minneapolis Center
Fri 10:49:59 PM 41.0936 -97.1792 81° East 412 474 29,000  Level Minneapolis Center
Fri 10:51:00 PM 41.1125 -97.0264 81° East 418 481 29,000  Level Minneapolis Center
Fri 10:52:01 PM 41.1328 -96.8761 80° East 415 478 29,000  Level Minneapolis Center
Fri 10:53:02 PM 41.1511 -96.7253 81° East 417 480 29,000  Level Minneapolis Center
Fri 10:54:03 PM 41.1689 -96.5742 81° East 415 478 29,000  Level Minneapolis Center
Fri 10:55:04 PM 41.1844 -96.4550 80° East 413 475 29,000  Level Minneapolis Center
Fri 10:56:06 PM 41.2067 -96.2517 82° East 416 479 29,000  Level Minneapolis Center
Fri 10:57:07 PM 41.2208 -96.1008 83° East 413 475 29,000  Level Minneapolis Center
Fri 10:58:08 PM 41.2383 -95.9492 81° East 414 476 29,000  Level Minneapolis Center
Fri 10:59:09 PM 41.2622 -95.7950 78° East 423 487 29,000 -356 Level Minneapolis Center
Fri 11:00:23 PM 41.2794 -95.6417 81° East 421 484 28,200 -1,689 Descending Minneapolis Center
Fri 11:01:24 PM 41.2994 -95.4636 81° East 415 478 25,200 -3,000 Descending Minneapolis Center
Fri 11:02:25 PM 41.3158 -95.3150 82° East 409 471 22,100 -2,361 Descending Minneapolis Center
Fri 11:03:26 PM 41.3347 -95.1708 80° East 401 461 20,400 -1,951 Descending Minneapolis Center
Fri 11:04:28 PM 41.3478 -95.0386 82° East 373 429 18,100 -1,659 Descending Minneapolis Center
Fri 11:05:29 PM 41.3622 -94.8814 83° East 360 414 17,000 -1,395 Descending Minneapolis Center
Fri 11:05:54 PM 41.3744 -94.8133 77° East 363 418 16,100 -2,164 Descending Minneapolis Center
Fri 11:06:30 PM 41.3739 -94.7483 91° East 361 415 14,800 -2,149 Descending Minneapolis Center
Fri 11:07:01 PM 41.3892 -94.6708 75° East 362 417 13,700 -1,315 Descending Minneapolis Center
Fri 11:07:43 PM 41.3864 -94.6153 94° East 362 417 13,200 -1,475 Descending Minneapolis Center
Fri 11:08:02 PM 41.3956 -94.5372 81° East 357 411 12,200 -2,226 Descending Minneapolis Center
Fri 11:08:45 PM 41.3925 -94.4478 93° East 352 405 10,900 -1,500 Descending Minneapolis Center
Fri 11:09:02 PM 41.4006 -94.4119 73° East 346 398 10,700 -689 Descending Minneapolis Center
Fri 11:09:46 PM 41.3953 -94.3336 95° East 310 357 10,200 -590 Descending Minneapolis Center
Fri 11:10:03 PM 41.4036 -94.3008 71° East 299 344 10,100 -1,082 Descending Minneapolis Center
Fri 11:10:47 PM 41.3994 -94.2328 95° East 275 316 9,100 -1,500 Descending Minneapolis Center
Fri 11:11:03 PM 41.4069 -94.1953 75° East 271 312 8,600 -2,164 Descending Minneapolis Center
Fri 11:11:48 PM 41.4022 -94.1372 96° East 262 302 6,900 -2,262 Descending Minneapolis Center
Fri 11:12:04 PM 41.4086 -94.1008 77° East 261 300 6,300 -1,869 Descending Minneapolis Center
Fri 11:12:49 PM 41.4042 -94.0575 98° East 257 296 5,000 -1,770 Descending Minneapolis Center
Fri 11:13:05 PM 41.4122 -94.0061 78° East 255 293 4,500 -984 Descending Minneapolis Center
Fri 11:13:50 PM 41.4064 -93.9681 102° East 246 283 4,000 -900 Descending Minneapolis Center
Fri 11:14:05 PM 41.4144 -93.9225 77° East 237 273 3,600 -968 Descending Minneapolis Center
Fri 11:14:52 PM 41.4147 -93.8736 90° East 208 239 3,000 -766 Descending Minneapolis Center

Login

Don't have an account? Register now (free) for customized features, flight alerts, and more!